Regional Weather Roundup
Issued by NWS

Home | Current Version | Previous Version | Graphics & Text | Print | Product List | Glossary On
Versions: 1 2 3 4 5 6 7 8 9 10 11 12 13 14 15 16 17 18 19 20 21 22 23 24 25 26 27 28 29 30 31 32 33 34 35 36 37 38 39 40 41 42 43 44 45 46 47 48 49 50
000
ASUS45 KBOU 220207
RWRCO

WEATHER ROUNDUP FOR COLORADO
NATIONAL WEATHER SERVICE DENVER/BOULDER CO
800 PM MDT THU AUG 21 2014

NOTE: "FAIR" INDICATES FEW OR NO CLOUDS BELOW 12000 FEET WITH NO
SIGNIFICANT WEATHER AND/OR OBSTRUCTIONS TO VISIBILITY.

COZ001>005-013-030-031-220300-
...NORTHWEST COLORADO...

CITY           SKY/WX    TMP DP  RH WIND       PRES   REMARKS
CRAIG          PTCLDY    64  46  52 N15       30.21R
HAYDEN         PTCLDY    64  43  45 NW6       30.22R
MEEKER         CLOUDY    67  48  50 N8        30.19S
MOUNT WERNER   NOT AVBL
STEAMBOAT SPGS PTCLDY    65  46  49 CALM      30.23R
WALDEN         CLOUDY    55  37  50 SW5       30.31S
$$

COZ006>008-011-220300-
...WEST CENTRAL VALLEYS...

CITY           SKY/WX    TMP DP  RH WIND       PRES   REMARKS
GRAND JUNCTION CLOUDY    75  47  36 CALM      30.08S
MONTROSE       CLOUDY    74  45  35 SE3       30.17S
EAGLE          CLOUDY    70  45  40 S5        30.23R
RIFLE          CLOUDY    73  40  30 E5        30.13S
DELTA          CLOUDY    77  47  33 SW3       30.11S
NUCLA          CLOUDY    73  34  23 CALM      30.19S
$$

COZ017>023-064>068-220300-
...SOUTHWEST COLORADO...

CITY           SKY/WX    TMP DP  RH WIND       PRES   REMARKS
DURANGO        CLOUDY    71  40  32 NW12      30.19R
CORTEZ         PTCLDY    74  35  24 CALM      30.16S
PAGOSA SPRINGS CLOUDY    70  36  28 CALM      30.26S
TELLURIDE      CLOUDY    57  45  62 SE6       30.39S
WOLF CREEK PAS NOT AVBL
$$

COZ009-010-012-014-032>034-037-058>063-220300-
...CENTRAL COLORADO...

CITY           SKY/WX    TMP DP  RH WIND       PRES   REMARKS
ASPEN          CLOUDY    63  44  50 S5        30.30R
BUENA VISTA    CLOUDY    67  36  31 NW18G24   30.28R
COPPER MTN     CLOUDY    50  34  53 W13       30.60S
BERTHOUD PASS  CLOUDY    41  39  93 NW12      30.64S
COTTONWOOD PAS CLOUDY    63  28  27 W12G17    30.43R
GUNNISON       CLOUDY    64  37  36 SW9       30.31S
KREMMLING      CLOUDY    63  37  39 S7        30.28R
LEADVILLE      CLOUDY    52  39  61 NE7       30.44S
SALIDA         CLOUDY    72  32  23 W8        30.31R
SUNLIGHT       CLOUDY    52  41  66 CALM      30.52S
WILKERSON PASS CLOUDY    52  36  54 E6        30.57R
$$

COZ069>075-220300-
...SAN LUIS VALLEY/SANGRE DE CRISTO MOUNTAINS...

CITY           SKY/WX    TMP DP  RH WIND       PRES   REMARKS
ALAMOSA        CLOUDY    70  42  36 NE3       30.21S
LA VETA PASS   NOT AVBL
SAGUACHE       CLOUDY    66  36  32 NW9       30.27S
$$

COZ035-036-038>040-220300-
...NORTHERN COLORADO FRONT RANGE...

CITY           SKY/WX    TMP DP  RH WIND       PRES   REMARKS
DENVER INTL AP CLOUDY    65  55  70 SE8       30.16S
DMNS CITY PARK   N/A     73  50  44 E7        30.13R
AURORA         MOCLDY    65  54  68 E6        30.16S
FRONT RANGE AP NOT AVBL
ERIE MUNI ARPT MOCLDY    70  48  45 CALM      30.11R
BOULDER MUN AP MOCLDY    68  52  56 N3        30.11R
CENTENNIAL     MOCLDY    67  51  56 N10       30.16R
BROOMFIELD     MOCLDY    73  45  35 NW12      30.13S
FORT COLLINS   CLOUDY    66  57  72 NW10      30.11F
LONGMONT       CLOUDY    68  58  68 NW7       30.12R
$$

COZ041-046-047-076>085-087-088-220300-
...PIKES PEAK/PALMER DIVIDE AND SOUTHERN FOOTHILLS...

CITY           SKY/WX    TMP DP  RH WIND       PRES   REMARKS
COLO. SPRINGS  MOCLDY    76  43  30 E7        30.14S
A. F. ACADEMY  MOCLDY    69  46  42 NW8       30.17R
ELLICOTT       MOCLDY    72  47  40 SE9       30.13S
FALCON         MOCLDY    70  44  38 E3        30.21R
FORT CARSON    NOT AVBL
LIMON          MOCLDY    73  48  41 NE8       30.09R
MONUMENT HILL  MOCLDY    59  52  77 N7        30.23R
TRINIDAD       CLOUDY    77  47  34 E10       30.09
$$

COZ042>045-048>051-090-091-220300-
...NORTHEAST COLORADO...

CITY           SKY/WX    TMP DP  RH WIND       PRES   REMARKS
GREELEY ARPT   CLOUDY    66  52  59 NW10      30.11R
AKRON          MOCLDY    77  51  40 S3        30.07R
BURLINGTON     PTCLDY    77  48  35 E5        30.01S
WRAY             N/A     78  49  36 NE7       29.98S
STERLING       PTCLDY    81  54  39 CALM      30.01R
HOLYOKE        NOT AVBL
FORT MORGAN    PTCLDY    73  52  48 E6        30.05R
$$

COZ086-089-092>099-220300-
...SOUTHEAST COLORADO...

CITY           SKY/WX    TMP DP  RH WIND       PRES   REMARKS
PUEBLO         MOCLDY    83  48  29 SE13      30.00R
LA JUNTA       MOCLDY    82  54  37 E7        29.98S
LAMAR          CLEAR     82  52  35 E7        29.94R
SPRINGFIELD      N/A     81  54  39 NE6       30.00S
$$



USA.gov is the U.S. government's official web portal to all federal, state and local government web resources and services.